W2CS Weather Reports


time (UTC)temp
C
wind
direction
speed
KPH
gust
KPH
rain 1hr
cm
rain 24hr
cm
rain mn
cm
humidity
%
barometer
mb
20260506001607 11 0 0.0 3.2 0.00 0.00 0.00 87 1011.9
20260506001039 11 239 0.0 8.0 0.00 0.00 0.00 86 1011.8
20260506000539 11 0 0.0 8.0 0.00 0.00 0.00 87 1011.6
20260506000048 11 0 0.0 3.2 0.00 0.00 0.00 86 1011.6
20260505235539 11 0 0.0 4.8 0.00 0.00 0.00 86 1011.8
20260505235039 12 134 0.0 4.8 0.00 0.00 0.00 86 1011.7
20260505234552 12 141 0.0 3.2 0.00 0.00 0.00 86 1011.8
20260505234039 12 141 0.0 4.8 0.00 0.00 0.00 86 1011.8
20260505233539 12 141 0.0 4.8 0.00 0.00 0.00 86 1011.9
20260505233055 12 121 0.0 4.8 0.00 0.00 0.00 86 1011.9
20260505232538 12 5 1.6 4.8 0.00 0.00 0.00 86 1012.0
20260505232039 12 312 1.6 4.8 0.00 0.00 0.00 86 1012.0
20260505231554 12 75 1.6 3.2 0.00 0.00 0.00 86 1011.9
20260505231041 12 0 0.0 4.8 0.00 0.00 0.00 86 1011.9
20260505230539 12 45 1.6 4.8 0.00 0.00 0.00 86 1011.9
20260505230049 12 85 0.0 4.8 0.00 0.00 0.00 86 1011.8
20260505225539 12 0 1.6 4.8 0.00 0.00 0.00 86 1011.8
20260505225039 12 0 0.0 3.2 0.00 0.00 0.00 85 1011.7
20260505224550 12 347 0.0 4.8 0.00 0.00 0.00 85 1011.6
20260505224039 12 0 0.0 4.8 0.00 0.00 0.00 85 1011.5
20260505223538 13 110 0.0 4.8 0.00 0.00 0.00 84 1011.5
20260505223057 13 121 0.0 4.8 0.00 0.00 0.00 84 1011.6
20260505222538 13 351 0.0 4.8 0.00 0.00 0.00 84 1011.6
20260505222038 13 19 0.0 6.4 0.00 0.00 0.00 84 1011.3
20260505221559 13 0 0.0 6.4 0.00 0.00 0.00 83 1011.4
20260505221039 13 356 1.6 6.4 0.00 0.00 0.00 82 1011.4
20260505220542 14 253 0.0 4.8 0.00 0.00 0.00 82 1011.4
20260505220056 14 253 1.6 4.8 0.00 0.00 0.00 82 1011.4
20260505215539 14 0 0.0 4.8 0.00 0.00 0.00 82 1011.4
20260505215039 14 341 1.6 4.8 0.00 0.00 0.00 82 1011.5
20260505214604 14 340 0.0 4.8 0.00 0.00 0.00 82 1011.5
20260505214040 14 0 0.0 4.8 0.00 0.00 0.00 82 1011.4
20260505213535 14 85 0.0 3.2 0.00 0.00 0.00 82 1011.5
20260505213058 14 0 0.0 4.8 0.00 0.00 0.00 82 1011.5
20260505212538 14 0 0.0 4.8 0.00 0.00 0.00 83 1011.6
20260505212038 14 0 1.6 4.8 0.00 0.00 0.00 82 1011.5
20260505211557 14 0 0.0 4.8 0.00 0.00 0.00 82 1011.3
20260505211040 14 1 1.6 6.4 0.00 0.00 0.00 82 1011.3
20260505210536 15 275 1.6 6.4 0.00 0.00 0.00 82 1011.1
20260505210059 15 90 1.6 6.4 0.00 0.00 0.00 82 1011.3
20260505205539 15 287 1.6 4.8 0.00 0.00 0.00 81 1011.3
20260505205039 15 323 1.6 4.8 0.00 0.00 0.00 82 1011.3
20260505204554 15 0 0.0 16.1 0.00 0.00 0.00 82 1011.2
20260505204039 15 24 1.6 16.1 0.00 0.00 0.00 81 1011.3
20260505203539 15 11 0.0 6.4 0.00 0.00 0.00 80 1011.3
20260505203051 15 0 0.0 6.4 0.00 0.00 0.00 80 1011.3
20260505202538 15 212 1.6 6.4 0.00 0.00 0.00 80 1011.2
20260505202040 15 299 1.6 4.8 0.00 0.00 0.00 80 1011.3
20260505201559 16 24 0.0 3.2 0.00 0.00 0.00 79 1011.3
20260505201039 16 334 1.6 3.2 0.00 0.00 0.00 80 1011.1
20260505200540 16 0 0.0 4.8 0.00 0.00 0.00 79 1011.2
20260505200048 16 8 0.0 6.4 0.00 0.00 0.00 79 1011.3
20260505195538 16 45 0.0 6.4 0.00 0.00 0.00 79 1011.5
20260505195035 16 21 1.6 6.4 0.00 0.00 0.00 79 1011.5
20260505194549 16 0 1.6 4.8 0.00 0.00 0.00 77 1011.5
20260505194039 16 38 1.6 8.0 0.00 0.00 0.00 78 1011.6
20260505193541 16 45 0.0 8.0 0.00 0.00 0.00 78 1011.5
20260505193050 17 117 1.6 8.0 0.00 0.00 0.00 76 1011.5
20260505192542 17 135 1.6 4.8 0.00 0.00 0.00 75 1011.6
20260505192039 18 227 0.0 4.8 0.00 0.00 0.00 74 1011.5
20260505191552 18 89 0.0 4.8 0.00 0.00 0.00 74 1011.5
20260505191039 18 0 0.0 4.8 0.00 0.00 0.00 75 1011.4
20260505190539 18 119 0.0 4.8 0.00 0.00 0.00 75 1011.4
20260505190104 18 123 1.6 4.8 0.00 0.00 0.00 73 1011.7
20260505185539 18 0 1.6 4.8 0.00 0.00 0.00 74 1011.6
20260505185039 18 10 0.0 4.8 0.00 0.00 0.00 73 1011.6
20260505184605 18 24 0.0 4.8 0.00 0.00 0.00 74 1011.6
20260505184039 18 12 1.6 3.2 0.00 0.00 0.00 74 1011.5
20260505183539 19 56 0.0 3.2 0.00 0.00 0.00 75 1011.8
20260505183054 19 205 0.0 4.8 0.00 0.00 0.00 75 1011.6
20260505182538 19 342 1.6 4.8 0.00 0.00 0.00 77 1011.8
20260505182038 20 169 1.6 4.8 0.00 0.00 0.00 75 1011.8
20260505181547 20 90 0.0 3.2 0.00 0.00 0.00 74 1011.8
20260505181043 20 0 0.0 4.8 0.00 0.00 0.00 72 1011.8
20260505180539 20 85 0.0 4.8 0.00 0.00 0.00 75 1011.8
20260505180055 20 215 1.6 4.8 0.00 0.00 0.00 74 1011.8
20260505175539 20 289 0.0 4.8 0.00 0.00 0.00 75 1011.8
20260505175039 20 223 0.0 4.8 0.00 0.00 0.00 74 1011.7
20260505174552 20 218 1.6 4.8 0.00 0.00 0.00 75 1011.6
20260505174040 20 218 0.0 4.8 0.00 0.00 0.00 75 1011.7
20260505173539 20 217 1.6 6.4 0.00 0.00 0.00 77 1011.8
20260505173049 20 0 1.6 6.4 0.00 0.00 0.00 77 1011.8
20260505172538 20 52 1.6 6.4 0.00 0.00 0.00 73 1011.9
20260505172038 20 203 0.0 6.4 0.00 0.00 0.00 74 1012.0
20260505171548 20 127 1.6 6.4 0.00 0.00 0.00 75 1012.0
20260505171038 20 40 1.6 6.4 0.00 0.00 0.00 73 1012.1
20260505170538 20 235 1.6 3.2 0.00 0.00 0.00 75 1012.0
20260505170057 20 236 0.0 4.8 0.00 0.00 0.00 75 1012.0
20260505165539 20 233 1.6 4.8 0.00 0.00 0.00 76 1012.1
20260505165038 20 290 0.0 4.8 0.00 0.00 0.00 75 1012.1
20260505164549 20 283 0.0 4.8 0.00 0.00 0.00 75 1012.2
20260505164039 20 186 1.6 4.8 0.00 0.00 0.00 74 1012.4
20260505163538 20 0 0.0 6.4 0.00 0.00 0.00 76 1012.4
20260505163044 20 80 0.0 6.4 0.00 0.00 0.00 76 1012.5
20260505162538 20 318 1.6 4.8 0.00 0.00 0.00 77 1012.5
20260505162038 20 0 1.6 4.8 0.00 0.00 0.00 75 1012.4
20260505161548 19 0 0.0 4.8 0.00 0.00 0.00 77 1012.5
20260505161039 19 58 0.0 4.8 0.00 0.00 0.00 77 1012.5
20260505160543 19 44 0.0 4.8 0.00 0.00 0.00 76 1012.5
20260505153102 18 268 0.0 4.8 0.00 0.00 0.00 75 1012.5
20260505152538 18 140 0.0 4.8 0.00 0.00 0.00 76 1012.5
20260505152039 18 0 0.0 4.8 0.00 0.00 0.00 79 1012.6
20260505151547 18 0 0.0 4.8 0.00 0.00 0.00 76 1012.6
20260505151038 19 216 1.6 6.4 0.00 0.00 0.00 76 1012.7
20260505150539 19 222 1.6 6.4 0.00 0.00 0.00 76 1012.7
20260505150106 18 0 1.6 4.8 0.00 0.00 0.00 77 1012.7
20260505140539 18 0 0.0 3.2 0.00 0.00 0.00 77 1012.4
20260505125039 16 0 1.6 4.8 0.00 0.00 0.00 84 1012.5
20260505124607 15 0 1.6 6.4 0.00 0.00 0.00 84 1012.4
20260505124039 15 0 0.0 6.4 0.00 0.00 0.00 85 1012.3
20260505123538 15 17 1.6 6.4 0.00 0.00 0.00 85 1012.2
20260505123114 15 345 0.0 3.2 0.00 0.00 0.00 86 1012.2
20260505122538 14 0 0.0 3.2 0.00 0.00 0.00 87 1012.2
20260505122039 13 291 0.0 3.2 0.00 0.00 0.00 87 1012.2
20260505121552 13 0 0.0 3.2 0.00 0.00 0.00 87 1012.2
20260505121040 13 0 0.0 3.2 0.00 0.00 0.00 88 1012.2
20260505120539 13 249 0.0 3.2 0.00 0.00 0.00 88 1012.1
20260505120054 12 0 0.0 3.2 0.00 0.00 0.00 89 1012.1
20260505115538 12 0 0.0 4.8 0.00 0.00 0.00 89 1012.2
20260505115039 12 0 0.0 4.8 0.00 0.00 0.00 90 1012.1
20260505114600 12 0 0.0 3.2 0.00 0.00 0.00 91 1012.1
20260505114039 12 195 0.0 3.2 0.00 0.00 0.00 92 1012.1
20260505113540 11 0 0.0 3.2 0.00 0.00 0.00 93 1012.1
20260505113055 11 0 0.0 3.2 0.00 0.00 0.00 94 1012.1
20260505112539 11 195 0.0 4.8 0.00 0.00 0.00 94 1012.1
20260505112039 11 0 0.0 4.8 0.00 0.00 0.00 94 1012.1
20260505111558 10 0 0.0 3.2 0.00 0.00 0.00 94 1012.0
20260505111039 10 0 0.0 1.6 0.00 0.00 0.00 94 1012.0
20260505110539 10 0 0.0 3.2 0.00 0.00 0.00 94 1012.0
20260505102039 8 0 0.0 3.2 0.00 0.00 0.00 94 1012.0
20260505101553 8 0 0.0 3.2 0.00 0.00 0.00 94 1012.0
20260505101041 8 0 0.0 3.2 0.00 0.00 0.00 94 1011.8
20260505100540 8 158 0.0 3.2 0.00 0.00 0.00 94 1011.9
20260505100101 7 0 0.0 3.2 0.00 0.00 0.00 94 1011.9
20260505095539 7 0 0.0 3.2 0.00 0.00 0.00 94 1011.6
20260505095039 7 0 0.0 3.2 0.00 0.00 0.00 94 1011.7
20260505094552 7 158 0.0 3.2 0.00 0.00 0.00 94 1011.7
20260505094039 7 158 0.0 3.2 0.00 0.00 0.00 94 1011.9
20260505093539 7 0 0.0 3.2 0.00 0.00 0.00 94 1011.8
20260505093051 7 0 0.0 3.2 0.00 0.00 0.00 94 1011.7
20260505092542 7 158 0.0 1.6 0.00 0.00 0.00 93 1011.6
20260505092039 7 0 0.0 1.6 0.00 0.00 0.00 93 1011.7
20260505091551 7 0 0.0 1.6 0.00 0.00 0.00 93 1011.6
20260505091040 7 0 0.0 1.6 0.00 0.00 0.00 93 1011.6
20260505090539 7 158 0.0 0.0 0.00 0.00 0.00 93 1011.8
20260505090105 7 0 0.0 0.0 0.00 0.00 0.00 93 1011.8
20260505085539 7 0 0.0 0.0 0.00 0.00 0.00 93 1011.8
20260505085039 7 0 0.0 1.6 0.00 0.00 0.00 93 1011.9
20260505084550 7 0 0.0 1.6 0.00 0.00 0.00 93 1011.8
20260505084039 7 0 0.0 1.6 0.00 0.00 0.00 93 1011.7
20260505083541 7 0 0.0 1.6 0.00 0.00 0.00 93 1011.6
20260505083106 7 0 0.0 1.6 0.00 0.00 0.00 93 1011.8
20260505082539 7 0 0.0 1.6 0.00 0.00 0.00 93 1011.9
20260505082039 7 0 0.0 3.2 0.00 0.00 0.00 93 1011.8
20260505081552 7 0 0.0 3.2 0.00 0.00 0.00 93 1011.8
20260505081039 7 0 0.0 3.2 0.00 0.00 0.00 93 1012.0
20260505080539 8 0 1.6 3.2 0.00 0.00 0.00 93 1011.9
20260505080056 8 158 0.0 3.2 0.00 0.00 0.00 93 1012.0
20260505075539 8 0 0.0 3.2 0.00 0.00 0.00 93 1011.9
20260505075039 8 0 0.0 3.2 0.00 0.00 0.00 93 1012.0
20260505074549 7 158 0.0 3.2 0.00 0.00 0.00 93 1012.1
20260505074042 7 158 0.0 3.2 0.00 0.00 0.00 93 1012.0
20260505073541 7 0 0.0 3.2 0.00 0.00 0.00 93 1012.1
20260505073059 7 0 0.0 1.6 0.00 0.00 0.00 93 1012.0
20260505072542 7 0 0.0 1.6 0.00 0.00 0.00 93 1012.0
20260505072040 7 0 0.0 3.2 0.00 0.00 0.00 93 1012.1
20260505071557 7 0 0.0 3.2 0.00 0.00 0.00 93 1012.1
20260505071039 7 0 0.0 1.6 0.00 0.00 0.00 93 1012.1
20260505070543 7 0 0.0 1.6 0.00 0.00 0.00 93 1012.1
20260505070057 7 0 0.0 3.2 0.00 0.00 0.00 93 1012.0
20260505065540 7 0 0.0 3.2 0.00 0.00 0.00 93 1012.1
20260505065039 7 0 0.0 1.6 0.00 0.00 0.00 93 1012.0
20260505064551 7 0 0.0 3.2 0.00 0.00 0.00 93 1012.1
20260505064039 7 158 0.0 3.2 0.00 0.00 0.00 93 1012.2
20260505063538 7 0 0.0 3.2 0.00 0.00 0.00 93 1012.1
20260505063054 7 0 0.0 0.0 0.00 0.00 0.00 93 1012.1
20260505062538 7 0 0.0 3.2 0.00 0.00 0.00 93 1012.2
20260505062040 7 0 0.0 3.2 0.00 0.00 0.00 93 1012.2
20260505061544 7 0 0.0 3.2 0.00 0.00 0.00 93 1012.3
20260505061039 7 0 0.0 3.2 0.00 0.00 0.00 93 1012.2
20260505060539 7 0 0.0 1.6 0.00 0.00 0.00 93 1012.2
20260505060048 7 0 0.0 0.0 0.00 0.00 0.00 93 1012.3
20260505055541 7 0 0.0 0.0 0.00 0.00 0.00 93 1012.3
20260505055043 7 0 0.0 1.6 0.00 0.00 0.00 93 1012.3
20260505054557 7 0 0.0 1.6 0.00 0.00 0.00 93 1012.3
20260505054037 7 0 0.0 0.0 0.00 0.00 0.00 92 1012.3
20260505053541 7 0 0.0 1.6 0.00 0.00 0.00 92 1012.3
20260505053053 7 0 0.0 1.6 0.00 0.00 0.00 92 1012.3
20260505052536 7 0 0.0 1.6 0.00 0.00 0.00 92 1012.4
20260505052040 7 0 0.0 1.6 0.00 0.00 0.00 92 1012.3
20260505051547 7 0 0.0 1.6 0.00 0.00 0.00 92 1012.3
20260505051038 7 0 0.0 1.6 0.00 0.00 0.00 92 1012.5
20260505050538 7 0 0.0 3.2 0.00 0.00 0.00 92 1012.5
20260505050125 7 0 0.0 3.2 0.00 0.00 0.00 92 1012.6
20260505041601 7 0 0.0 1.6 0.00 0.00 0.00 92 1012.8
20260505041039 7 0 0.0 1.6 0.00 0.00 0.00 92 1012.7
20260505040540 7 0 0.0 0.0 0.00 0.00 0.00 91 1012.7
20260505040059 7 0 0.0 3.2 0.00 0.00 0.00 91 1012.7
20260505035540 7 0 0.0 3.2 0.00 0.00 0.00 91 1012.8
20260505035039 7 0 0.0 3.2 0.00 0.00 0.00 91 1012.8
20260505034548 7 0 0.0 1.6 0.00 0.00 0.00 91 1012.8
20260505034039 7 0 0.0 1.6 0.00 0.00 0.00 91 1012.8
20260505033539 7 0 0.0 1.6 0.00 0.00 0.00 91 1012.8
20260505033050 7 0 0.0 1.6 0.00 0.00 0.00 91 1012.8
20260505032539 7 0 0.0 0.0 0.00 0.00 0.00 90 1012.8
20260505032038 7 0 0.0 0.0 0.00 0.00 0.00 90 1012.9
20260505031550 7 0 0.0 0.0 0.00 0.00 0.00 90 1013.0
20260505031038 8 0 0.0 0.0 0.00 0.00 0.00 90 1013.0
20260505030539 8 0 0.0 0.0 0.00 0.00 0.00 90 1013.1
20260505030052 8 0 0.0 0.0 0.00 0.00 0.00 89 1013.0
20260505025536 8 0 0.0 3.2 0.00 0.00 0.00 89 1012.9
20260505025038 8 0 0.0 3.2 0.00 0.00 0.00 89 1013.0
20260505024550 8 0 0.0 1.6 0.00 0.00 0.00 89 1012.9
20260505024039 8 0 0.0 1.6 0.00 0.00 0.00 88 1012.9
20260505023541 8 0 0.0 3.2 0.00 0.00 0.00 88 1013.0
20260505023054 8 0 0.0 3.2 0.00 0.00 0.00 88 1012.9
20260505022539 9 0 0.0 0.0 0.00 0.00 0.00 88 1013.0
20260505022039 9 0 0.0 0.0 0.00 0.00 0.00 87 1013.0
20260505021550 9 0 0.0 1.6 0.00 0.00 0.00 87 1013.0
20260505021038 9 0 0.0 3.2 0.00 0.00 0.00 87 1013.0
20260505020539 10 0 0.0 4.8 0.00 0.00 0.00 87 1013.0
20260505020050 10 56 0.0 4.8 0.00 0.00 0.00 87 1013.0
20260505015539 10 56 0.0 4.8 0.00 0.00 0.00 87 1013.0
20260505015039 10 17 0.0 3.2 0.00 0.00 0.00 87 1012.9
20260505014604 10 20 1.6 4.8 0.00 0.00 0.00 87 1012.9
20260505014042 10 322 1.6 6.4 0.00 0.00 0.00 87 1012.8
20260505013538 10 343 1.6 6.4 0.00 0.00 0.00 87 1012.7
20260505013051 10 348 1.6 4.8 0.00 0.00 0.00 87 1012.7
20260505012539 10 333 1.6 4.8 0.00 0.00 0.00 86 1012.5
20260505012039 10 354 1.6 4.8 0.00 0.00 0.00 86 1012.4
20260505011549 10 295 1.6 4.8 0.00 0.00 0.00 86 1012.4
20260505011039 10 220 1.6 6.4 0.00 0.00 0.00 86 1012.3
20260505010539 10 8 1.6 6.4 0.00 0.00 0.00 86 1012.2
20260505010049 10 344 1.6 6.4 0.00 0.00 0.00 85 1012.1
20260505005539 10 110 1.6 4.8 0.00 0.00 0.00 85 1012.1
20260505005039 10 181 1.6 4.8 0.00 0.00 0.00 85 1011.9
20260505004550 10 359 1.6 6.4 0.00 0.00 0.00 85 1011.9
20260505004038 10 360 1.6 6.4 0.00 0.00 0.00 84 1011.8
20260505003535 10 359 1.6 8.0 0.00 0.00 0.00 84 1011.6
20260505003054 10 10 1.6 8.0 0.00 0.00 0.00 84 1011.5
20260505002542 10 29 1.6 8.0 0.00 0.00 0.00 84 1011.5
20260505002039 10 6 1.6 4.8 0.00 0.00 0.00 83 1011.3